{"data":{"norad_id":61053,"intl_designator":"2024-164D","name":"STARLINK-11230 [DTC]","alt_names":[],"object_type":"PAYLOAD","status":"ACTIVE","operator":null,"country":"US","launch_date":"2024-09-13","launch_site_code":"AFWTR","launch_vehicle":null,"mission":null,"orbit_class":"UNKNOWN","rcs_meters":null,"size_class":null,"mass_kg":null,"dimensions":null,"purposes":["comms"],"wikipedia_slug":null,"has_3d_model":false,"image_url":null,"decayed_at":null,"tle_current":{"epoch":"2026-05-24T20:31:35.373792Z","epoch_age_seconds":80935,"freshness":"FRESH","line1":"1 61053U 24164D   26144.85527053  .00000468  00000+0  87195-5 0  9996","line2":"2 61053  53.1579 295.6451 0000989  93.7232 266.3899 15.69712720 97381","mean_motion":15.6971272,"eccentricity":9.89e-5,"inclination_deg":53.1579,"raan_deg":295.6451,"arg_perigee_deg":93.7232,"mean_anomaly_deg":266.3899,"bstar":8.7195e-6,"rev_number":9738,"period_min":91.736531255222,"perigee_km":359.05259287706,"apogee_km":360.3853407873,"semimajor_km":6737.8559668322,"source":"CELESTRAK","updated_at":"2026-05-25T13:38:19.353547Z"}}}